Location: Krasnoyarskiy Pitomnik
(51.1333°N, 71.6167°E)
Time: 13:25:38
(UTC+00:00)

Transit 2A - Pass Details

Date: 17 April 2024
Orbit: 594 x 958 km, 66.7° (Epoch: 27 May)

Event Time Altitude Azimuth Distance (km) Brightness Sun altitude
Rises 04:59:06 0° 270° (W) 2,913 8.7 41.2°
Reaches altitude 10° 05:01:51 10° 288° (WNW) 2,054 7.9 41.5°
Maximum altitude 05:05:15 20° 336° (NNW) 1,567 7.4 41.8°
Drops below altitude 10° 05:08:54 10° 23° (NNE) 2,209 8.3 42.2°
Sets 05:12:00 0° 40° (NE) 3,209 9.2 42.6°
